Location: Rio Negrinho
(26.2394°S, 49.4999°W)
Time: 06:42:47
(UTC+00:00)

Hubble Space Telescope - Pass Details

Date: 30 July 2021
Orbit: 535 x 539 km, 28.5° (Epoch: 26 September)

Event Time Altitude Azimuth Distance (km) Brightness Sun altitude
Exits shadow 07:34:50 22° 88° (E) 1,213 3.2 -32.1°
Drops below altitude 10° 07:36:25 10° 96° (E) 1,794 4.3 -31.8°
Sets 07:38:43 0° 100° (E) 2,688 5.4 -31.2°
